Location: Newark
(51.0500°N, 12.4500°E)
Time: 15:27:22
(UTC+00:00)

ISS - Visible Passes

Search period start: 20 January 2020 00:00
Search period end: 30 January 2020 00:00
Orbit: 415 x 421 km, 51.6° (Epoch: 21 January)

Date Brightness Start Highest point End Pass type
(mag) Time Alt. Az. Time Alt. Az. Time Alt. Az.
21 Jan -1.3 18:13:02 10° SSW 18:14:04 17° SSW 18:14:04 17° SSW visible
22 Jan -2.0 17:25:36 10° SSW 17:28:06 20° SE 17:28:14 20° SE visible
22 Jan -0.3 19:01:08 10° WSW 19:01:11 10° WSW 19:01:11 10° WSW visible
23 Jan -1.5 16:38:33 10° S 16:40:17 14° SE 16:42:02 10° ESE visible
23 Jan -2.3 18:13:12 10° SW 18:15:18 32° SW 18:15:18 32° SW visible
24 Jan -2.9 17:25:23 10° SW 17:28:31 38° SSE 17:29:20 32° ESE visible
24 Jan -0.5 19:01:47 10° W 19:02:16 14° W 19:02:16 14° W visible
25 Jan -2.3 16:37:41 10° SSW 16:40:36 27° SSE 16:43:19 11° E visible
25 Jan -2.8 18:13:43 10° WSW 18:16:15 48° WSW 18:16:15 48° WSW visible
26 Jan -3.7 17:25:42 10° WSW 17:29:03 67° SSE 17:30:12 37° E visible
26 Jan -0.6 19:02:28 10° W 19:03:08 15° W 19:03:08 15° W visible
27 Jan -3.2 16:37:45 10° SW 16:41:01 50° SSE 16:44:06 11° E visible
27 Jan -3.0 18:14:22 10° W 18:17:02 52° W 18:17:02 52° W visible
28 Jan -3.8 17:26:15 10° W 17:29:38 87° N 17:30:55 35° ENE visible
28 Jan -0.7 19:03:05 10° W 19:03:51 16° W 19:03:51 16° W visible
29 Jan -3.7 16:38:09 10° WSW 16:41:32 81° SSE 16:44:48 11° E visible
29 Jan -3.1 18:14:58 10° W 18:17:43 55° WNW 18:17:43 55° WNW visible
